| time (UTC) | temp C | wind direction | speed KPH | gust KPH | rain 1hr cm | rain 24hr cm | rain mn cm | humidity % | barometer mb |
| 20260831143004 | 31 | 255 | 1.6 | 4.8 | 0.00 | 0.00 | 0.00 | 42 | 1013.5 |
| 20260831142504 | 31 | 279 | 0.0 | 9.7 | 0.00 | 0.00 | 0.00 | 42 | 1013.3 |
| 20260831142004 | 31 | 258 | 4.8 | 9.7 | 0.00 | 0.00 | 0.00 | 42 | 1013.3 |
| 20260831141525 | 31 | 254 | 6.4 | 9.7 | 0.00 | 0.00 | 0.00 | 42 | 1013.6 |
| 20260831141004 | 31 | 267 | 1.6 | 8.0 | 0.00 | 0.00 | 0.00 | 42 | 1013.3 |
| 20260831140504 | 30 | 346 | 1.6 | 6.4 | 0.00 | 0.00 | 0.00 | 42 | 1013.5 |
| 20260831140004 | 30 | 263 | 3.2 | 6.4 | 0.00 | 0.00 | 0.00 | 42 | 1013.5 |
| 20260831135504 | 30 | 251 | 1.6 | 6.4 | 0.00 | 0.00 | 0.00 | 42 | 1013.5 |
| 20260831135004 | 30 | 224 | 0.0 | 1.6 | 0.00 | 0.00 | 0.00 | 42 | 1013.5 |
| 20260831134503 | 30 | 212 | 4.8 | 12.9 | 0.00 | 0.00 | 0.00 | 43 | 1013.5 |
| 20260831134004 | 30 | 226 | 8.0 | 14.5 | 0.00 | 0.00 | 0.00 | 42 | 1013.5 |
| 20260831133503 | 30 | 249 | 9.7 | 14.5 | 0.00 | 0.00 | 0.00 | 42 | 1013.6 |
| 20260831133004 | 30 | 264 | 6.4 | 14.5 | 0.00 | 0.00 | 0.00 | 43 | 1013.5 |
| 20260831132504 | 30 | 291 | 3.2 | 12.9 | 0.00 | 0.00 | 0.00 | 43 | 1013.6 |
| 20260831132004 | 30 | 261 | 6.4 | 12.9 | 0.00 | 0.00 | 0.00 | 42 | 1013.6 |
| 20260831131504 | 30 | 270 | 6.4 | 12.9 | 0.00 | 0.00 | 0.00 | 42 | 1013.7 |
| 20260831131004 | 30 | 317 | 4.8 | 6.4 | 0.00 | 0.00 | 0.00 | 42 | 1013.7 |
| 20260831130504 | 30 | 295 | 6.4 | 11.3 | 0.00 | 0.00 | 0.00 | 42 | 1013.7 |
| 20260831130004 | 30 | 269 | 3.2 | 11.3 | 0.00 | 0.00 | 0.00 | 42 | 1013.9 |
| 20260831125504 | 30 | 229 | 1.6 | 12.9 | 0.00 | 0.00 | 0.00 | 43 | 1013.8 |
| 20260831125004 | 30 | 241 | 3.2 | 12.9 | 0.00 | 0.00 | 0.00 | 43 | 1013.9 |
| 20260831124504 | 30 | 232 | 3.2 | 11.3 | 0.00 | 0.00 | 0.00 | 42 | 1013.9 |
| 20260831124004 | 30 | 221 | 1.6 | 6.4 | 0.00 | 0.00 | 0.00 | 42 | 1014.1 |
| 20260831123503 | 30 | 288 | 3.2 | 9.7 | 0.00 | 0.00 | 0.00 | 42 | 1014.1 |
| 20260831123004 | 30 | 289 | 4.8 | 9.7 | 0.00 | 0.00 | 0.00 | 43 | 1014.0 |
| 20260831122504 | 30 | 252 | 6.4 | 12.9 | 0.00 | 0.00 | 0.00 | 42 | 1014.0 |
| 20260831122025 | 29 | 228 | 4.8 | 12.9 | 0.00 | 0.00 | 0.00 | 43 | 1014.2 |
| 20260831121503 | 29 | 205 | 4.8 | 12.9 | 0.00 | 0.00 | 0.00 | 43 | 1014.1 |
| 20260831121004 | 29 | 208 | 4.8 | 12.9 | 0.00 | 0.00 | 0.00 | 43 | 1014.2 |
| 20260831120504 | 29 | 213 | 6.4 | 8.0 | 0.00 | 0.00 | 0.00 | 43 | 1014.2 |
| 20260831120003 | 29 | 200 | 8.0 | 12.9 | 0.00 | 0.00 | 0.00 | 43 | 1014.3 |
| 20260831115504 | 29 | 186 | 6.4 | 12.9 | 0.00 | 0.00 | 0.00 | 43 | 1014.3 |
| 20260831115004 | 29 | 240 | 3.2 | 9.7 | 0.00 | 0.00 | 0.00 | 44 | 1014.3 |
| 20260831114504 | 29 | 217 | 4.8 | 9.7 | 0.00 | 0.00 | 0.00 | 44 | 1014.3 |
| 20260831114004 | 29 | 203 | 6.4 | 12.9 | 0.00 | 0.00 | 0.00 | 45 | 1014.3 |
| 20260831113503 | 29 | 210 | 4.8 | 12.9 | 0.00 | 0.00 | 0.00 | 45 | 1014.3 |
| 20260831113004 | 29 | 280 | 1.6 | 6.4 | 0.00 | 0.00 | 0.00 | 45 | 1014.4 |
| 20260831112525 | 29 | 278 | 1.6 | 6.4 | 0.00 | 0.00 | 0.00 | 45 | 1014.3 |
| 20260831112004 | 29 | 221 | 0.0 | 1.6 | 0.00 | 0.00 | 0.00 | 46 | 1014.4 |
| 20260831111503 | 29 | 292 | 1.6 | 6.4 | 0.00 | 0.00 | 0.00 | 45 | 1014.6 |
| 20260831111003 | 29 | 256 | 3.2 | 6.4 | 0.00 | 0.00 | 0.00 | 45 | 1014.6 |
| 20260831110524 | 28 | 247 | 4.8 | 6.4 | 0.00 | 0.00 | 0.00 | 45 | 1014.5 |
| 20260831110004 | 28 | 251 | 3.2 | 6.4 | 0.00 | 0.00 | 0.00 | 45 | 1014.5 |
| 20260831105503 | 28 | 252 | 1.6 | 6.4 | 0.00 | 0.00 | 0.00 | 45 | 1014.7 |
| 20260831105004 | 28 | 294 | 1.6 | 6.4 | 0.00 | 0.00 | 0.00 | 45 | 1014.6 |
| 20260831104504 | 28 | 309 | 4.8 | 8.0 | 0.00 | 0.00 | 0.00 | 44 | 1014.4 |
| 20260831104003 | 28 | 315 | 3.2 | 8.0 | 0.00 | 0.00 | 0.00 | 45 | 1014.6 |
| 20260831103503 | 28 | 312 | 1.6 | 4.8 | 0.00 | 0.00 | 0.00 | 45 | 1014.6 |
| 20260831103004 | 28 | 303 | 0.0 | 1.6 | 0.00 | 0.00 | 0.00 | 46 | 1014.6 |
| 20260831102525 | 28 | 315 | 0.0 | 1.6 | 0.00 | 0.00 | 0.00 | 45 | 1014.8 |
| 20260831102004 | 28 | 337 | 0.0 | 1.6 | 0.00 | 0.00 | 0.00 | 47 | 1014.6 |
| 20260831101503 | 28 | 360 | 0.0 | 1.6 | 0.00 | 0.00 | 0.00 | 47 | 1014.7 |
| 20260831101004 | 28 | 0 | 0.0 | 0.0 | 0.00 | 0.00 | 0.00 | 47 | 1014.7 |
| 20260831100504 | 28 | 269 | 0.0 | 1.6 | 0.00 | 0.00 | 0.00 | 47 | 1014.7 |
| 20260831100004 | 28 | 302 | 0.0 | 1.6 | 0.00 | 0.00 | 0.00 | 47 | 1014.8 |
| 20260831095503 | 28 | 22 | 0.0 | 1.6 | 0.00 | 0.00 | 0.00 | 48 | 1014.8 |
| 20260831095004 | 28 | 315 | 0.0 | 1.6 | 0.00 | 0.00 | 0.00 | 48 | 1014.7 |
| 20260831094504 | 28 | 289 | 0.0 | 1.6 | 0.00 | 0.00 | 0.00 | 49 | 1014.8 |
| 20260831094004 | 28 | 247 | 0.0 | 1.6 | 0.00 | 0.00 | 0.00 | 50 | 1014.8 |
| 20260831093504 | 28 | 315 | 0.0 | 1.6 | 0.00 | 0.00 | 0.00 | 50 | 1014.8 |
| 20260831093025 | 27 | 315 | 0.0 | 1.6 | 0.00 | 0.00 | 0.00 | 51 | 1014.8 |
| 20260831092504 | 28 | 315 | 0.0 | 1.6 | 0.00 | 0.00 | 0.00 | 51 | 1014.8 |
| 20260831092004 | 28 | 0 | 0.0 | 0.0 | 0.00 | 0.00 | 0.00 | 52 | 1014.9 |
| 20260831091503 | 27 | 0 | 0.0 | 0.0 | 0.00 | 0.00 | 0.00 | 52 | 1015.1 |
| 20260831091004 | 27 | 0 | 0.0 | 0.0 | 0.00 | 0.00 | 0.00 | 52 | 1015.0 |
| 20260831090504 | 27 | 0 | 0.0 | 0.0 | 0.00 | 0.00 | 0.00 | 53 | 1015.0 |
| 20260831090025 | 27 | 0 | 0.0 | 0.0 | 0.00 | 0.00 | 0.00 | 53 | 1015.0 |
| 20260831085504 | 27 | 0 | 0.0 | 0.0 | 0.00 | 0.00 | 0.00 | 53 | 1014.9 |
| 20260831085004 | 27 | 0 | 0.0 | 0.0 | 0.00 | 0.00 | 0.00 | 58 | 1014.9 |
| 20260831084503 | 27 | 0 | 0.0 | 0.0 | 0.00 | 0.00 | 0.00 | 57 | 1014.9 |
| 20260831084025 | 27 | 0 | 0.0 | 0.0 | 0.00 | 0.00 | 0.00 | 57 | 1014.8 |
| 20260831083503 | 27 | 0 | 0.0 | 0.0 | 0.00 | 0.00 | 0.00 | 58 | 1014.9 |
| 20260831083003 | 26 | 0 | 0.0 | 0.0 | 0.00 | 0.00 | 0.00 | 59 | 1014.9 |
| 20260831082503 | 26 | 0 | 0.0 | 0.0 | 0.00 | 0.00 | 0.00 | 59 | 1014.8 |
| 20260831082004 | 26 | 0 | 0.0 | 0.0 | 0.00 | 0.00 | 0.00 | 60 | 1014.7 |
| 20260831081503 | 26 | 0 | 0.0 | 0.0 | 0.00 | 0.00 | 0.00 | 60 | 1014.8 |
| 20260831081003 | 26 | 0 | 0.0 | 0.0 | 0.00 | 0.00 | 0.00 | 60 | 1014.6 |
| 20260831080525 | 25 | 0 | 0.0 | 0.0 | 0.00 | 0.00 | 0.00 | 60 | 1014.6 |
| 20260831080004 | 25 | 0 | 0.0 | 0.0 | 0.00 | 0.00 | 0.00 | 60 | 1014.7 |
| 20260831075524 | 25 | 22 | 0.0 | 1.6 | 0.00 | 0.00 | 0.00 | 60 | 1014.6 |
| 20260831075003 | 25 | 17 | 0.0 | 1.6 | 0.00 | 0.00 | 0.00 | 61 | 1014.6 |
| 20260831074504 | 25 | 5 | 0.0 | 1.6 | 0.00 | 0.00 | 0.00 | 61 | 1014.6 |
| 20260831074004 | 25 | 360 | 0.0 | 1.6 | 0.00 | 0.00 | 0.00 | 61 | 1014.6 |
| 20260831073503 | 25 | 360 | 0.0 | 1.6 | 0.00 | 0.00 | 0.00 | 62 | 1014.5 |
| 20260831073003 | 25 | 0 | 0.0 | 0.0 | 0.00 | 0.00 | 0.00 | 62 | 1014.4 |
| 20260831072504 | 25 | 0 | 0.0 | 0.0 | 0.00 | 0.00 | 0.00 | 63 | 1014.4 |
| 20260831072004 | 24 | 0 | 0.0 | 0.0 | 0.00 | 0.00 | 0.00 | 62 | 1014.5 |
| 20260831071503 | 24 | 0 | 0.0 | 0.0 | 0.00 | 0.00 | 0.00 | 62 | 1014.5 |
| 20260831071003 | 24 | 0 | 0.0 | 0.0 | 0.00 | 0.00 | 0.00 | 62 | 1014.6 |
| 20260831070503 | 24 | 0 | 0.0 | 0.0 | 0.00 | 0.00 | 0.00 | 63 | 1014.6 |
| 20260831070004 | 24 | 0 | 0.0 | 0.0 | 0.00 | 0.00 | 0.00 | 63 | 1014.5 |
| 20260831065525 | 24 | 0 | 0.0 | 0.0 | 0.00 | 0.00 | 0.00 | 63 | 1014.6 |
| 20260831065004 | 23 | 0 | 0.0 | 0.0 | 0.00 | 0.00 | 0.00 | 63 | 1014.5 |
| 20260831064504 | 23 | 0 | 0.0 | 0.0 | 0.00 | 0.00 | 0.00 | 64 | 1014.5 |
| 20260831064003 | 23 | 360 | 0.0 | 1.6 | 0.00 | 0.00 | 0.00 | 64 | 1014.5 |
| 20260831063503 | 23 | 360 | 0.0 | 1.6 | 0.00 | 0.00 | 0.00 | 64 | 1014.4 |
| 20260831063003 | 23 | 353 | 0.0 | 1.6 | 0.00 | 0.00 | 0.00 | 65 | 1014.4 |
| 20260831062503 | 23 | 353 | 0.0 | 1.6 | 0.00 | 0.00 | 0.00 | 65 | 1014.5 |
| 20260831062025 | 22 | 0 | 0.0 | 0.0 | 0.00 | 0.00 | 0.00 | 65 | 1014.5 |
| 20260831061503 | 22 | 360 | 0.0 | 4.8 | 0.00 | 0.00 | 0.00 | 65 | 1014.5 |
| 20260831061003 | 22 | 360 | 0.0 | 4.8 | 0.00 | 0.00 | 0.00 | 65 | 1014.5 |
| 20260831060503 | 22 | 8 | 0.0 | 1.6 | 0.00 | 0.00 | 0.00 | 70 | 1014.5 |
| 20260831060004 | 22 | 9 | 0.0 | 1.6 | 0.00 | 0.00 | 0.00 | 70 | 1014.4 |
| 20260831055504 | 22 | 11 | 0.0 | 1.6 | 0.00 | 0.00 | 0.00 | 70 | 1014.3 |
| 20260831055004 | 21 | 360 | 0.0 | 1.6 | 0.00 | 0.00 | 0.00 | 70 | 1014.3 |
| 20260831054504 | 21 | 11 | 1.6 | 3.2 | 0.00 | 0.00 | 0.00 | 71 | 1014.4 |
| 20260831054003 | 21 | 14 | 1.6 | 3.2 | 0.00 | 0.00 | 0.00 | 71 | 1014.3 |
| 20260831053504 | 21 | 21 | 1.6 | 4.8 | 0.00 | 0.00 | 0.00 | 71 | 1014.5 |
| 20260831053003 | 21 | 21 | 1.6 | 4.8 | 0.00 | 0.00 | 0.00 | 71 | 1014.2 |
| 20260831052504 | 20 | 17 | 1.6 | 3.2 | 0.00 | 0.00 | 0.00 | 72 | 1014.3 |
| 20260831052004 | 20 | 360 | 0.0 | 1.6 | 0.00 | 0.00 | 0.00 | 72 | 1014.0 |
| 20260831051504 | 20 | 9 | 1.6 | 6.4 | 0.00 | 0.00 | 0.00 | 72 | 1014.1 |
| 20260831051024 | 20 | 10 | 1.6 | 6.4 | 0.00 | 0.00 | 0.00 | 72 | 1014.0 |
| 20260831050503 | 20 | 2 | 1.6 | 6.4 | 0.00 | 0.00 | 0.00 | 72 | 1014.1 |
| 20260831050005 | 20 | 4 | 1.6 | 3.2 | 0.00 | 0.00 | 0.00 | 72 | 1014.2 |
| 20260831045504 | 20 | 9 | 1.6 | 3.2 | 0.00 | 0.00 | 0.00 | 72 | 1014.0 |
| 20260831045003 | 20 | 16 | 1.6 | 3.2 | 0.00 | 0.00 | 0.00 | 73 | 1014.2 |
| 20260831044503 | 20 | 14 | 0.0 | 3.2 | 0.00 | 0.00 | 0.00 | 73 | 1013.9 |
| 20260831044004 | 20 | 7 | 0.0 | 3.2 | 0.00 | 0.00 | 0.00 | 73 | 1014.0 |
| 20260831043525 | 20 | 11 | 0.0 | 3.2 | 0.00 | 0.00 | 0.00 | 73 | 1014.1 |
| 20260831043024 | 20 | 0 | 0.0 | 0.0 | 0.00 | 0.00 | 0.00 | 72 | 1014.1 |
| 20260831042503 | 20 | 10 | 1.6 | 3.2 | 0.00 | 0.00 | 0.00 | 71 | 1013.9 |
| 20260831042024 | 20 | 9 | 1.6 | 3.2 | 0.00 | 0.00 | 0.00 | 70 | 1014.1 |
| 20260831041546 | 20 | 347 | 1.6 | 3.2 | 0.00 | 0.00 | 0.00 | 70 | 1014.2 |
| 20260831041003 | 21 | 333 | 1.6 | 3.2 | 0.00 | 0.00 | 0.00 | 69 | 1014.4 |
| 20260831040503 | 21 | 0 | 0.0 | 0.0 | 0.00 | 0.00 | 0.00 | 68 | 1014.2 |
| 20260831040003 | 21 | 0 | 0.0 | 0.0 | 0.00 | 0.00 | 0.00 | 68 | 1014.1 |
| 20260831035504 | 21 | 0 | 0.0 | 0.0 | 0.00 | 0.00 | 0.00 | 68 | 1014.1 |
| 20260831035004 | 21 | 0 | 0.0 | 0.0 | 0.00 | 0.00 | 0.00 | 68 | 1013.9 |
| 20260831034503 | 21 | 0 | 0.0 | 0.0 | 0.00 | 0.00 | 0.00 | 68 | 1014.0 |
| 20260831034003 | 21 | 0 | 0.0 | 0.0 | 0.00 | 0.00 | 0.00 | 68 | 1014.1 |
| 20260831033503 | 21 | 0 | 0.0 | 0.0 | 0.00 | 0.00 | 0.00 | 68 | 1014.0 |
| 20260831033024 | 21 | 9 | 0.0 | 3.2 | 0.00 | 0.00 | 0.00 | 68 | 1014.1 |
| 20260831032503 | 21 | 9 | 0.0 | 3.2 | 0.00 | 0.00 | 0.00 | 68 | 1014.3 |
| 20260831032003 | 21 | 22 | 0.0 | 1.6 | 0.00 | 0.00 | 0.00 | 68 | 1014.1 |
| 20260831031503 | 21 | 11 | 0.0 | 1.6 | 0.00 | 0.00 | 0.00 | 68 | 1014.3 |
| 20260831031025 | 21 | 9 | 0.0 | 1.6 | 0.00 | 0.00 | 0.00 | 68 | 1014.3 |
| 20260831030503 | 21 | 9 | 0.0 | 3.2 | 0.00 | 0.00 | 0.00 | 69 | 1014.4 |
| 20260831030003 | 21 | 11 | 1.6 | 3.2 | 0.00 | 0.00 | 0.00 | 69 | 1014.3 |
| 20260831025503 | 21 | 20 | 0.0 | 3.2 | 0.00 | 0.00 | 0.00 | 69 | 1014.2 |
| 20260831025003 | 21 | 16 | 1.6 | 3.2 | 0.00 | 0.00 | 0.00 | 69 | 1014.4 |
| 20260831024503 | 21 | 8 | 1.6 | 4.8 | 0.00 | 0.00 | 0.00 | 70 | 1014.3 |
| 20260831024024 | 21 | 5 | 3.2 | 8.0 | 0.00 | 0.00 | 0.00 | 70 | 1014.4 |
| 20260831023503 | 21 | 10 | 3.2 | 8.0 | 0.00 | 0.00 | 0.00 | 70 | 1014.4 |
| 20260831023003 | 21 | 14 | 3.2 | 6.4 | 0.00 | 0.00 | 0.00 | 69 | 1014.4 |
| 20260831022524 | 21 | 16 | 1.6 | 3.2 | 0.00 | 0.00 | 0.00 | 69 | 1014.4 |
| 20260831022003 | 21 | 18 | 0.0 | 3.2 | 0.00 | 0.00 | 0.00 | 68 | 1014.3 |
| 20260831021525 | 21 | 19 | 0.0 | 3.2 | 0.00 | 0.00 | 0.00 | 68 | 1014.4 |
| 20260831021003 | 21 | 22 | 0.0 | 1.6 | 0.00 | 0.00 | 0.00 | 69 | 1014.3 |
| 20260831020524 | 21 | 9 | 0.0 | 1.6 | 0.00 | 0.00 | 0.00 | 69 | 1014.4 |
| 20260831020003 | 21 | 10 | 1.6 | 3.2 | 0.00 | 0.00 | 0.00 | 69 | 1014.4 |
| 20260831015503 | 21 | 19 | 1.6 | 3.2 | 0.00 | 0.00 | 0.00 | 69 | 1014.3 |
| 20260831015004 | 21 | 19 | 1.6 | 3.2 | 0.00 | 0.00 | 0.00 | 70 | 1014.3 |
| 20260831014503 | 21 | 5 | 1.6 | 4.8 | 0.00 | 0.00 | 0.00 | 70 | 1014.3 |
| 20260831014004 | 21 | 4 | 1.6 | 4.8 | 0.00 | 0.00 | 0.00 | 70 | 1014.4 |
| 20260831013504 | 21 | 12 | 1.6 | 4.8 | 0.00 | 0.00 | 0.00 | 70 | 1014.4 |
| 20260831013004 | 21 | 14 | 1.6 | 3.2 | 0.00 | 0.00 | 0.00 | 70 | 1014.6 |
| 20260831012503 | 21 | 11 | 1.6 | 3.2 | 0.00 | 0.00 | 0.00 | 70 | 1014.5 |
| 20260831012003 | 21 | 11 | 0.0 | 1.6 | 0.00 | 0.00 | 0.00 | 70 | 1014.5 |
| 20260831011503 | 21 | 14 | 0.0 | 1.6 | 0.00 | 0.00 | 0.00 | 70 | 1014.5 |
| 20260831011004 | 21 | 11 | 0.0 | 1.6 | 0.00 | 0.00 | 0.00 | 70 | 1014.5 |
| 20260831010504 | 21 | 8 | 0.0 | 1.6 | 0.00 | 0.00 | 0.00 | 70 | 1014.5 |
| 20260831010003 | 21 | 360 | 0.0 | 1.6 | 0.00 | 0.00 | 0.00 | 70 | 1014.4 |
| 20260831005503 | 21 | 8 | 0.0 | 1.6 | 0.00 | 0.00 | 0.00 | 70 | 1014.5 |
| 20260831005003 | 22 | 8 | 1.6 | 1.6 | 0.00 | 0.00 | 0.00 | 70 | 1014.4 |
| 20260831004524 | 22 | 4 | 0.0 | 1.6 | 0.00 | 0.00 | 0.00 | 69 | 1014.4 |
| 20260831004003 | 22 | 0 | 0.0 | 0.0 | 0.00 | 0.00 | 0.00 | 68 | 1014.3 |
| 20260831003504 | 22 | 0 | 0.0 | 0.0 | 0.00 | 0.00 | 0.00 | 68 | 1014.3 |
| 20260831003003 | 22 | 0 | 0.0 | 0.0 | 0.00 | 0.00 | 0.00 | 67 | 1014.3 |
| 20260831002503 | 22 | 22 | 0.0 | 1.6 | 0.00 | 0.00 | 0.00 | 67 | 1014.4 |
| 20260831002004 | 22 | 22 | 0.0 | 1.6 | 0.00 | 0.00 | 0.00 | 64 | 1014.4 |
| 20260831001503 | 22 | 22 | 0.0 | 1.6 | 0.00 | 0.00 | 0.00 | 64 | 1014.5 |
| 20260831001003 | 22 | 0 | 0.0 | 0.0 | 0.00 | 0.00 | 0.00 | 64 | 1014.6 |
| 20260831000503 | 22 | 360 | 0.0 | 1.6 | 0.00 | 0.00 | 0.00 | 63 | 1014.5 |
| 20260831000003 | 22 | 360 | 0.0 | 1.6 | 0.00 | 0.00 | 0.00 | 63 | 1014.8 |
| 20260830235524 | 22 | 360 | 0.0 | 1.6 | 0.00 | 0.00 | 0.00 | 64 | 1014.5 |
| 20260830235003 | 22 | 9 | 0.0 | 1.6 | 0.00 | 0.00 | 0.00 | 67 | 1014.7 |
| 20260830234503 | 22 | 6 | 0.0 | 1.6 | 0.00 | 0.00 | 0.00 | 68 | 1014.8 |
| 20260830234024 | 22 | 360 | 0.0 | 1.6 | 0.00 | 0.00 | 0.00 | 67 | 1014.8 |
| 20260830233503 | 22 | 0 | 0.0 | 0.0 | 0.00 | 0.00 | 0.00 | 63 | 1014.7 |
| 20260830233003 | 22 | 0 | 0.0 | 0.0 | 0.00 | 0.00 | 0.00 | 63 | 1014.8 |
| 20260830232503 | 22 | 0 | 0.0 | 0.0 | 0.00 | 0.00 | 0.00 | 63 | 1014.7 |
| 20260830232003 | 22 | 11 | 0.0 | 1.6 | 0.00 | 0.00 | 0.00 | 63 | 1014.8 |
| 20260830231503 | 22 | 9 | 0.0 | 1.6 | 0.00 | 0.00 | 0.00 | 63 | 1014.7 |
| 20260830231003 | 22 | 11 | 0.0 | 1.6 | 0.00 | 0.00 | 0.00 | 63 | 1014.6 |
| 20260830230503 | 22 | 11 | 0.0 | 1.6 | 0.00 | 0.00 | 0.00 | 63 | 1014.7 |
| 20260830230024 | 22 | 360 | 0.0 | 1.6 | 0.00 | 0.00 | 0.00 | 63 | 1014.7 |
| 20260830225503 | 22 | 11 | 0.0 | 1.6 | 0.00 | 0.00 | 0.00 | 63 | 1014.9 |
| 20260830225024 | 22 | 5 | 0.0 | 1.6 | 0.00 | 0.00 | 0.00 | 62 | 1014.8 |
| 20260830224503 | 22 | 360 | 0.0 | 1.6 | 0.00 | 0.00 | 0.00 | 62 | 1014.9 |
| 20260830224003 | 22 | 360 | 0.0 | 1.6 | 0.00 | 0.00 | 0.00 | 62 | 1015.0 |
| 20260830223524 | 22 | 4 | 0.0 | 1.6 | 0.00 | 0.00 | 0.00 | 62 | 1015.0 |
| 20260830223003 | 22 | 7 | 0.0 | 1.6 | 0.00 | 0.00 | 0.00 | 62 | 1014.9 |
| 20260830222524 | 22 | 11 | 0.0 | 1.6 | 0.00 | 0.00 | 0.00 | 62 | 1014.9 |
| 20260830222003 | 22 | 17 | 0.0 | 1.6 | 0.00 | 0.00 | 0.00 | 62 | 1014.8 |
| 20260830221503 | 22 | 22 | 0.0 | 1.6 | 0.00 | 0.00 | 0.00 | 62 | 1014.8 |
| 20260830221024 | 22 | 22 | 0.0 | 1.6 | 0.00 | 0.00 | 0.00 | 62 | 1014.9 |
| 20260830220524 | 22 | 0 | 0.0 | 0.0 | 0.00 | 0.00 | 0.00 | 61 | 1014.8 |
| 20260830220004 | 22 | 0 | 0.0 | 0.0 | 0.00 | 0.00 | 0.00 | 61 | 1014.9 |
| 20260830215503 | 22 | 0 | 0.0 | 0.0 | 0.00 | 0.00 | 0.00 | 61 | 1014.8 |
| 20260830215003 | 22 | 0 | 0.0 | 0.0 | 0.00 | 0.00 | 0.00 | 60 | 1014.6 |
| 20260830214503 | 23 | 0 | 0.0 | 0.0 | 0.00 | 0.00 | 0.00 | 60 | 1014.6 |
| 20260830214024 | 23 | 0 | 0.0 | 0.0 | 0.00 | 0.00 | 0.00 | 60 | 1014.7 |
| 20260830213503 | 23 | 0 | 0.0 | 0.0 | 0.00 | 0.00 | 0.00 | 60 | 1014.6 |
| 20260830213003 | 23 | 0 | 0.0 | 0.0 | 0.00 | 0.00 | 0.00 | 59 | 1014.6 |
| 20260830212003 | 23 | 56 | 0.0 | 1.6 | 0.00 | 0.00 | 0.00 | 59 | 1014.5 |
| 20260830211503 | 23 | 72 | 0.0 | 1.6 | 0.00 | 0.00 | 0.00 | 58 | 1014.5 |
| 20260830211003 | 23 | 135 | 0.0 | 1.6 | 0.00 | 0.00 | 0.00 | 57 | 1014.6 |
| 20260830210524 | 23 | 0 | 0.0 | 0.0 | 0.00 | 0.00 | 0.00 | 57 | 1014.5 |
| 20260830210024 | 23 | 0 | 0.0 | 0.0 | 0.00 | 0.00 | 0.00 | 57 | 1014.5 |
| 20260830205524 | 23 | 0 | 0.0 | 0.0 | 0.00 | 0.00 | 0.00 | 56 | 1014.4 |
| 20260830205003 | 23 | 0 | 0.0 | 0.0 | 0.00 | 0.00 | 0.00 | 57 | 1014.4 |
| 20260830204503 | 23 | 0 | 0.0 | 0.0 | 0.00 | 0.00 | 0.00 | 57 | 1014.5 |
| 20260830204003 | 23 | 0 | 0.0 | 0.0 | 0.00 | 0.00 | 0.00 | 57 | 1014.4 |
| 20260830203503 | 23 | 0 | 0.0 | 0.0 | 0.00 | 0.00 | 0.00 | 57 | 1014.5 |
| 20260830203003 | 23 | 0 | 0.0 | 0.0 | 0.00 | 0.00 | 0.00 | 57 | 1014.4 |
| 20260830202503 | 23 | 0 | 0.0 | 0.0 | 0.00 | 0.00 | 0.00 | 57 | 1014.4 |
| 20260830202003 | 23 | 0 | 0.0 | 0.0 | 0.00 | 0.00 | 0.00 | 56 | 1014.4 |
| 20260830201503 | 24 | 0 | 0.0 | 0.0 | 0.00 | 0.00 | 0.00 | 56 | 1014.6 |
| 20260830201003 | 24 | 0 | 0.0 | 0.0 | 0.00 | 0.00 | 0.00 | 56 | 1014.4 |
| 20260830200503 | 24 | 0 | 0.0 | 0.0 | 0.00 | 0.00 | 0.00 | 55 | 1014.4 |
| 20260830200003 | 24 | 0 | 0.0 | 0.0 | 0.00 | 0.00 | 0.00 | 55 | 1014.5 |
| 20260830195503 | 24 | 0 | 0.0 | 0.0 | 0.00 | 0.00 | 0.00 | 54 | 1014.3 |
| 20260830195003 | 24 | 0 | 0.0 | 0.0 | 0.00 | 0.00 | 0.00 | 53 | 1014.3 |
| 20260830194503 | 24 | 0 | 0.0 | 0.0 | 0.00 | 0.00 | 0.00 | 53 | 1014.3 |
| 20260830194003 | 25 | 0 | 0.0 | 0.0 | 0.00 | 0.00 | 0.00 | 53 | 1014.4 |
| 20260830193503 | 25 | 0 | 0.0 | 0.0 | 0.00 | 0.00 | 0.00 | 53 | 1014.3 |
| 20260830193003 | 25 | 0 | 0.0 | 0.0 | 0.00 | 0.00 | 0.00 | 53 | 1014.4 |
| 20260830192503 | 25 | 360 | 0.0 | 1.6 | 0.00 | 0.00 | 0.00 | 53 | 1014.4 |
| 20260830192003 | 25 | 360 | 0.0 | 1.6 | 0.00 | 0.00 | 0.00 | 53 | 1014.3 |
| 20260830191503 | 25 | 0 | 0.0 | 0.0 | 0.00 | 0.00 | 0.00 | 53 | 1014.4 |
| 20260830191003 | 25 | 0 | 0.0 | 0.0 | 0.00 | 0.00 | 0.00 | 52 | 1014.4 |
| 20260830190503 | 25 | 0 | 0.0 | 0.0 | 0.00 | 0.00 | 0.00 | 52 | 1014.3 |
| 20260830190003 | 25 | 0 | 0.0 | 0.0 | 0.00 | 0.00 | 0.00 | 52 | 1014.2 |
| 20260830185503 | 25 | 0 | 0.0 | 0.0 | 0.00 | 0.00 | 0.00 | 52 | 1014.2 |
| 20260830185003 | 25 | 0 | 0.0 | 0.0 | 0.00 | 0.00 | 0.00 | 52 | 1014.0 |
| 20260830184524 | 25 | 0 | 0.0 | 0.0 | 0.00 | 0.00 | 0.00 | 52 | 1013.9 |
| 20260830184003 | 25 | 0 | 0.0 | 0.0 | 0.00 | 0.00 | 0.00 | 52 | 1014.0 |
| 20260830183503 | 25 | 0 | 0.0 | 0.0 | 0.00 | 0.00 | 0.00 | 52 | 1014.0 |
| 20260830183024 | 25 | 0 | 0.0 | 0.0 | 0.00 | 0.00 | 0.00 | 52 | 1014.0 |
| 20260830182503 | 25 | 0 | 0.0 | 0.0 | 0.00 | 0.00 | 0.00 | 51 | 1013.7 |
| 20260830182003 | 25 | 0 | 0.0 | 0.0 | 0.00 | 0.00 | 0.00 | 51 | 1014.0 |
| 20260830181503 | 25 | 0 | 0.0 | 0.0 | 0.00 | 0.00 | 0.00 | 51 | 1013.8 |
| 20260830181024 | 26 | 0 | 0.0 | 0.0 | 0.00 | 0.00 | 0.00 | 51 | 1013.9 |
| 20260830180503 | 26 | 0 | 0.0 | 0.0 | 0.00 | 0.00 | 0.00 | 51 | 1013.8 |
| 20260830180003 | 26 | 0 | 0.0 | 0.0 | 0.00 | 0.00 | 0.00 | 51 | 1013.8 |
| 20260830175503 | 26 | 0 | 0.0 | 0.0 | 0.00 | 0.00 | 0.00 | 50 | 1013.7 |
| 20260830175003 | 26 | 0 | 0.0 | 0.0 | 0.00 | 0.00 | 0.00 | 50 | 1013.7 |
| 20260830174503 | 27 | 0 | 0.0 | 0.0 | 0.00 | 0.00 | 0.00 | 50 | 1013.7 |
| 20260830174003 | 27 | 0 | 0.0 | 0.0 | 0.00 | 0.00 | 0.00 | 49 | 1013.6 |
| 20260830173503 | 27 | 0 | 0.0 | 0.0 | 0.00 | 0.00 | 0.00 | 43 | 1013.6 |
| 20260830173003 | 28 | 0 | 0.0 | 0.0 | 0.00 | 0.00 | 0.00 | 42 | 1013.6 |
| 20260830172524 | 28 | 0 | 0.0 | 0.0 | 0.00 | 0.00 | 0.00 | 42 | 1013.5 |
| 20260830172024 | 28 | 0 | 0.0 | 0.0 | 0.00 | 0.00 | 0.00 | 41 | 1013.6 |
| 20260830171503 | 29 | 0 | 0.0 | 0.0 | 0.00 | 0.00 | 0.00 | 41 | 1013.6 |
| 20260830171003 | 29 | 0 | 0.0 | 0.0 | 0.00 | 0.00 | 0.00 | 41 | 1013.6 |
| 20260830170503 | 29 | 0 | 0.0 | 0.0 | 0.00 | 0.00 | 0.00 | 41 | 1013.6 |
| 20260830170003 | 29 | 0 | 0.0 | 0.0 | 0.00 | 0.00 | 0.00 | 41 | 1013.5 |
| 20260830165524 | 29 | 0 | 0.0 | 0.0 | 0.00 | 0.00 | 0.00 | 41 | 1013.7 |
| 20260830165003 | 29 | 0 | 0.0 | 0.0 | 0.00 | 0.00 | 0.00 | 40 | 1013.6 |
| 20260830164503 | 30 | 0 | 0.0 | 0.0 | 0.00 | 0.00 | 0.00 | 40 | 1013.5 |
| 20260830164003 | 30 | 0 | 0.0 | 0.0 | 0.00 | 0.00 | 0.00 | 40 | 1013.7 |
| 20260830163503 | 29 | 315 | 0.0 | 1.6 | 0.00 | 0.00 | 0.00 | 40 | 1013.7 |
| 20260830163003 | 30 | 315 | 0.0 | 1.6 | 0.00 | 0.00 | 0.00 | 40 | 1013.7 |
| 20260830162503 | 30 | 0 | 0.0 | 0.0 | 0.00 | 0.00 | 0.00 | 40 | 1013.7 |
| 20260830162003 | 30 | 270 | 0.0 | 1.6 | 0.00 | 0.00 | 0.00 | 40 | 1013.6 |
| 20260830161503 | 30 | 270 | 0.0 | 1.6 | 0.00 | 0.00 | 0.00 | 40 | 1013.7 |
| 20260830161004 | 30 | 270 | 0.0 | 1.6 | 0.00 | 0.00 | 0.00 | 40 | 1013.7 |
| 20260830160503 | 30 | 202 | 0.0 | 6.4 | 0.00 | 0.00 | 0.00 | 40 | 1013.5 |
| 20260830160003 | 30 | 214 | 1.6 | 8.0 | 0.00 | 0.00 | 0.00 | 40 | 1013.6 |
| 20260830155524 | 30 | 217 | 1.6 | 8.0 | 0.00 | 0.00 | 0.00 | 40 | 1013.6 |
| 20260830155003 | 30 | 247 | 0.0 | 1.6 | 0.00 | 0.00 | 0.00 | 40 | 1013.7 |
| 20260830154503 | 30 | 223 | 1.6 | 6.4 | 0.00 | 0.00 | 0.00 | 40 | 1013.7 |
| 20260830154003 | 30 | 265 | 3.2 | 6.4 | 0.00 | 0.00 | 0.00 | 40 | 1013.8 |
| 20260830153503 | 30 | 303 | 1.6 | 6.4 | 0.00 | 0.00 | 0.00 | 40 | 1013.7 |
| 20260830153003 | 30 | 276 | 0.0 | 4.8 | 0.00 | 0.00 | 0.00 | 40 | 1013.9 |
| 20260830152503 | 30 | 294 | 0.0 | 1.6 | 0.00 | 0.00 | 0.00 | 40 | 1013.8 |
| 20260830152003 | 30 | 315 | 0.0 | 1.6 | 0.00 | 0.00 | 0.00 | 40 | 1013.7 |
| 20260830151503 | 30 | 282 | 1.6 | 4.8 | 0.00 | 0.00 | 0.00 | 40 | 1014.0 |
| 20260830151003 | 30 | 294 | 1.6 | 4.8 | 0.00 | 0.00 | 0.00 | 40 | 1013.9 |
| 20260830150524 | 30 | 315 | 1.6 | 6.4 | 0.00 | 0.00 | 0.00 | 40 | 1014.0 |
| 20260830150003 | 30 | 315 | 1.6 | 8.0 | 0.00 | 0.00 | 0.00 | 40 | 1014.1 |
| 20260830145503 | 30 | 309 | 0.0 | 8.0 | 0.00 | 0.00 | 0.00 | 40 | 1014.0 |
| 20260830145003 | 30 | 219 | 0.0 | 1.6 | 0.00 | 0.00 | 0.00 | 40 | 1013.8 |
| 20260830144503 | 30 | 245 | 1.6 | 6.4 | 0.00 | 0.00 | 0.00 | 40 | 1014.0 |
| 20260830144003 | 30 | 276 | 3.2 | 6.4 | 0.00 | 0.00 | 0.00 | 40 | 1014.0 |
| 20260830143503 | 30 | 279 | 1.6 | 6.4 | 0.00 | 0.00 | 0.00 | 40 | 1013.9 |